Time,TemperatureF,DewpointF,PressureIn,WindDirection,WindDirectionDegrees,WindSpeedMPH,WindSpeedGustMPH,Humidity,HourlyPrecipIn,Conditions,Clouds,dailyrainin,SoftwareType,DateUTC
2013-06-05 00:01:00,68.1,60.3,0.00,NW,315,0.0,0.0,76,0.00,,,0.00,WUHU216HW,2013-06-05 04:01:00,
2013-06-05 00:06:00,68.1,60.3,0.00,NW,315,0.0,0.0,76,0.00,,,0.00,WUHU216HW,2013-06-05 04:06:00,
2013-06-05 00:11:00,67.8,60.0,0.00,NW,315,0.0,0.0,76,0.00,,,0.00,WUHU216HW,2013-06-05 04:11:00,
2013-06-05 00:16:00,67.8,60.0,0.00,NW,315,0.0,0.0,76,0.00,,,0.00,WUHU216HW,2013-06-05 04:16:00,
2013-06-05 00:21:00,67.8,60.0,0.00,NW,315,0.0,0.0,76,0.00,,,0.00,WUHU216HW,2013-06-05 04:21:00,
2013-06-05 00:26:00,67.6,59.8,0.00,NW,315,0.0,0.0,76,0.00,,,0.00,WUHU216HW,2013-06-05 04:26:00,
2013-06-05 00:32:00,67.6,59.8,0.00,NW,315,0.0,0.0,76,0.00,,,0.00,WUHU216HW,2013-06-05 04:32:00,
2013-06-05 00:37:00,67.2,59.4,0.00,NW,315,0.0,0.0,76,0.00,,,0.00,WUHU216HW,2013-06-05 04:37:00,
2013-06-05 00:42:00,67.1,59.2,0.00,NW,315,0.0,0.0,76,0.00,,,0.00,WUHU216HW,2013-06-05 04:42:00,
2013-06-05 00:47:00,67.1,59.2,0.00,NW,315,0.0,0.0,76,0.00,,,0.00,WUHU216HW,2013-06-05 04:47:00,
2013-06-05 00:52:00,66.9,59.1,0.00,NW,315,0.0,0.0,76,0.00,,,0.00,WUHU216HW,2013-06-05 04:52:00,
2013-06-05 00:57:00,66.9,59.4,0.00,NW,315,0.0,0.0,77,0.00,,,0.00,WUHU216HW,2013-06-05 04:57:00,
2013-06-05 01:02:00,66.7,59.3,0.00,NW,315,0.0,0.0,77,0.00,,,0.00,WUHU216HW,2013-06-05 05:02:00,
2013-06-05 01:07:00,66.5,59.1,0.00,NW,315,0.0,0.0,77,0.00,,,0.00,WUHU216HW,2013-06-05 05:07:00,
2013-06-05 01:12:00,66.2,58.7,0.00,NW,315,0.0,0.0,77,0.00,,,0.00,WUHU216HW,2013-06-05 05:12:00,
2013-06-05 01:17:00,66.0,58.9,0.00,NW,315,0.0,0.0,78,0.00,,,0.00,WUHU216HW,2013-06-05 05:17:00,
2013-06-05 01:22:00,66.0,58.9,0.00,NW,315,0.0,0.0,78,0.00,,,0.00,WUHU216HW,2013-06-05 05:22:00,
2013-06-05 01:27:00,65.8,58.7,0.00,NW,315,0.0,0.0,78,0.00,,,0.00,WUHU216HW,2013-06-05 05:27:00,
2013-06-05 01:32:00,65.6,58.9,0.00,NW,315,0.0,0.0,79,0.00,,,0.00,WUHU216HW,2013-06-05 05:32:00,
2013-06-05 01:37:00,65.4,58.8,0.00,NW,315,0.0,0.0,79,0.00,,,0.00,WUHU216HW,2013-06-05 05:37:00,
2013-06-05 01:42:00,65.3,58.6,0.00,NW,315,0.0,0.0,79,0.00,,,0.00,WUHU216HW,2013-06-05 05:42:00,
2013-06-05 01:47:00,65.1,58.4,0.00,NW,315,0.0,0.0,79,0.00,,,0.00,WUHU216HW,2013-06-05 05:47:00,
2013-06-05 01:52:00,64.9,58.2,0.00,NW,315,0.0,0.0,79,0.00,,,0.00,WUHU216HW,2013-06-05 05:52:00,
2013-06-05 01:57:00,64.7,58.0,0.00,NW,315,0.0,0.0,79,0.00,,,0.00,WUHU216HW,2013-06-05 05:57:00,
2013-06-05 02:02:00,64.5,58.2,0.00,NW,315,0.0,0.0,80,0.00,,,0.00,WUHU216HW,2013-06-05 06:02:00,
2013-06-05 02:07:00,64.5,58.6,0.00,NW,315,0.0,0.0,81,0.00,,,0.00,WUHU216HW,2013-06-05 06:07:00,
2013-06-05 02:12:00,64.7,58.7,0.00,NW,315,0.0,0.0,81,0.00,,,0.00,WUHU216HW,2013-06-05 06:12:00,
2013-06-05 02:17:00,64.9,58.9,0.00,NW,315,0.0,0.0,81,0.00,,,0.00,WUHU216HW,2013-06-05 06:17:00,
2013-06-05 02:22:00,64.7,58.7,0.00,NW,315,0.0,0.0,81,0.00,,,0.00,WUHU216HW,2013-06-05 06:22:00,
2013-06-05 02:27:00,64.7,58.7,0.00,NW,315,0.0,0.0,81,0.00,,,0.00,WUHU216HW,2013-06-05 06:27:00,
2013-06-05 02:32:00,64.7,58.7,0.00,NW,315,0.0,0.0,81,0.00,,,0.00,WUHU216HW,2013-06-05 06:32:00,
2013-06-05 02:37:00,64.9,58.9,0.00,NW,315,0.0,0.0,81,0.00,,,0.00,WUHU216HW,2013-06-05 06:37:00,
2013-06-05 02:42:00,64.9,58.9,0.00,NW,315,0.0,0.0,81,0.00,,,0.00,WUHU216HW,2013-06-05 06:42:00,
2013-06-05 02:47:00,64.9,59.3,0.00,NW,315,0.0,0.0,82,0.00,,,0.00,WUHU216HW,2013-06-05 06:47:00,
2013-06-05 02:52:00,65.1,59.4,0.00,NW,315,0.0,0.0,82,0.00,,,0.00,WUHU216HW,2013-06-05 06:52:00,
2013-06-05 02:57:00,65.1,59.4,0.00,NW,315,0.0,0.0,82,0.00,,,0.00,WUHU216HW,2013-06-05 06:57:00,
2013-06-05 03:02:00,65.3,59.6,0.00,NW,315,0.0,0.0,82,0.00,,,0.00,WUHU216HW,2013-06-05 07:02:00,
2013-06-05 03:07:00,65.1,59.4,0.00,NW,315,0.0,0.0,82,0.00,,,0.00,WUHU216HW,2013-06-05 07:07:00,
2013-06-05 03:12:00,65.1,59.4,0.00,NW,315,0.0,0.0,82,0.00,,,0.00,WUHU216HW,2013-06-05 07:12:00,
2013-06-05 03:17:00,65.1,59.4,0.00,NW,315,0.0,0.0,82,0.00,,,0.00,WUHU216HW,2013-06-05 07:17:00,
2013-06-05 03:22:00,65.1,59.4,0.00,NW,315,0.0,0.0,82,0.00,,,0.00,WUHU216HW,2013-06-05 07:22:00,
2013-06-05 03:27:00,64.9,59.3,0.00,NW,315,0.0,0.0,82,0.00,,,0.00,WUHU216HW,2013-06-05 07:27:00,
2013-06-05 03:32:00,64.7,58.7,0.00,NW,315,0.0,0.0,81,0.00,,,0.00,WUHU216HW,2013-06-05 07:32:00,
2013-06-05 03:37:00,64.5,58.9,0.00,NW,315,0.0,0.0,81,0.00,,,0.00,WUHU216HW,2013-06-05 07:37:00,
2013-06-05 03:42:00,64.5,58.6,0.00,NW,315,0.0,0.0,81,0.00,,,0.00,WUHU216HW,2013-06-05 07:42:00,
2013-06-05 03:47:00,64.2,58.6,0.00,NW,315,0.0,0.0,82,0.00,,,0.00,WUHU216HW,2013-06-05 07:47:00,
2013-06-05 03:52:00,64.0,58.4,0.00,NW,315,0.0,0.0,82,0.00,,,0.00,WUHU216HW,2013-06-05 07:52:00,
2013-06-05 03:57:00,63.6,58.0,0.00,NW,315,0.0,0.0,82,0.00,,,0.00,WUHU216HW,2013-06-05 07:57:00,
2013-06-05 04:03:00,63.5,57.8,0.00,NW,315,0.0,0.0,82,0.00,,,0.00,WUHU216HW,2013-06-05 08:03:00,
2013-06-05 04:08:00,63.3,57.7,0.00,NW,315,0.0,0.0,82,0.00,,,0.00,WUHU216HW,2013-06-05 08:08:00,
2013-06-05 04:13:00,63.1,57.5,0.00,NW,315,0.0,0.0,82,0.00,,,0.00,WUHU216HW,2013-06-05 08:13:00,
2013-06-05 04:18:00,63.1,57.5,0.00,NW,315,0.0,0.0,82,0.00,,,0.00,WUHU216HW,2013-06-05 08:18:00,
2013-06-05 04:23:00,62.9,57.3,0.00,NW,315,0.0,0.0,82,0.00,,,0.00,WUHU216HW,2013-06-05 08:23:00,
2013-06-05 04:28:00,62.7,57.1,0.00,NW,315,0.0,0.0,82,0.00,,,0.00,WUHU216HW,2013-06-05 08:28:00,
2013-06-05 04:33:00,62.6,57.3,0.00,NW,315,0.0,0.0,83,0.00,,,0.00,WUHU216HW,2013-06-05 08:33:00,
2013-06-05 04:38:00,62.6,57.3,0.00,NW,315,0.0,0.0,83,0.00,,,0.00,WUHU216HW,2013-06-05 08:38:00,
2013-06-05 04:43:00,62.6,57.3,0.00,NW,315,0.0,0.0,83,0.00,,,0.00,WUHU216HW,2013-06-05 08:43:00,
2013-06-05 04:48:00,62.4,57.1,0.00,NW,315,0.0,0.0,83,0.00,,,0.00,WUHU216HW,2013-06-05 08:48:00,
2013-06-05 04:53:00,62.6,57.3,0.00,NW,315,0.0,0.0,83,0.00,,,0.00,WUHU216HW,2013-06-05 08:53:00,
2013-06-05 04:58:00,62.4,57.1,0.00,NW,315,0.0,0.0,83,0.00,,,0.00,WUHU216HW,2013-06-05 08:58:00,
2013-06-05 05:03:00,62.4,57.1,0.00,NW,315,0.0,0.0,83,0.00,,,0.00,WUHU216HW,2013-06-05 09:03:00,
2013-06-05 05:08:00,62.4,57.4,0.00,NW,315,0.0,0.0,84,0.00,,,0.00,WUHU216HW,2013-06-05 09:08:00,
2013-06-05 05:13:00,62.4,57.4,0.00,NW,315,0.0,0.0,84,0.00,,,0.00,WUHU216HW,2013-06-05 09:13:00,
2013-06-05 05:18:00,62.4,57.4,0.00,NW,315,0.0,0.0,84,0.00,,,0.00,WUHU216HW,2013-06-05 09:18:00,
2013-06-05 05:23:00,62.4,57.4,0.00,NW,315,0.0,0.0,84,0.00,,,0.00,WUHU216HW,2013-06-05 09:23:00,
2013-06-05 05:28:00,62.4,57.4,0.00,NW,315,0.0,0.0,84,0.00,,,0.00,WUHU216HW,2013-06-05 09:28:00,
2013-06-05 05:33:00,62.2,57.3,0.00,NW,315,0.0,0.0,84,0.00,,,0.00,WUHU216HW,2013-06-05 09:33:00,
2013-06-05 05:38:00,62.0,57.1,0.00,North,0,0.0,0.0,84,0.00,,,0.00,WUHU216HW,2013-06-05 09:38:00,
2013-06-05 05:43:00,62.0,57.1,0.00,NW,315,0.0,0.0,84,0.00,,,0.00,WUHU216HW,2013-06-05 09:43:00,
2013-06-05 05:48:00,62.0,57.1,0.00,NW,315,0.0,0.0,84,0.00,,,0.00,WUHU216HW,2013-06-05 09:48:00,
2013-06-05 05:53:00,61.8,56.9,0.00,NW,315,0.0,0.0,84,0.00,,,0.00,WUHU216HW,2013-06-05 09:53:00,
2013-06-05 05:58:00,61.8,56.9,0.00,NW,315,0.0,0.0,84,0.00,,,0.00,WUHU216HW,2013-06-05 09:58:00,
2013-06-05 06:03:00,61.7,56.8,0.00,NW,315,0.0,0.0,84,0.00,,,0.00,WUHU216HW,2013-06-05 10:03:00,
2013-06-05 06:08:00,61.5,56.6,0.00,NW,315,0.0,0.0,84,0.00,,,0.00,WUHU216HW,2013-06-05 10:08:00,
2013-06-05 06:13:00,61.3,56.8,0.00,NW,315,0.0,0.0,85,0.00,,,0.00,WUHU216HW,2013-06-05 10:13:00,
2013-06-05 06:18:00,61.3,56.8,0.00,NW,315,0.0,0.0,85,0.00,,,0.00,WUHU216HW,2013-06-05 10:18:00,
2013-06-05 06:23:00,61.3,56.8,0.00,NW,315,0.0,0.0,85,0.00,,,0.00,WUHU216HW,2013-06-05 10:23:00,
2013-06-05 06:28:00,61.3,56.8,0.00,NW,315,0.0,0.0,85,0.00,,,0.00,WUHU216HW,2013-06-05 10:28:00,
2013-06-05 06:33:00,61.3,56.8,0.00,NW,315,0.0,0.0,85,0.00,,,0.00,WUHU216HW,2013-06-05 10:33:00,
2013-06-05 06:38:00,61.3,56.8,0.00,NW,315,0.0,0.0,85,0.00,,,0.00,WUHU216HW,2013-06-05 10:38:00,
2013-06-05 06:43:00,61.5,56.9,0.00,NW,315,0.0,0.0,85,0.00,,,0.00,WUHU216HW,2013-06-05 10:43:00,
2013-06-05 06:48:00,61.5,56.9,0.00,NW,315,0.0,0.0,85,0.00,,,0.00,WUHU216HW,2013-06-05 10:48:00,
2013-06-05 06:53:00,61.5,56.9,0.00,NW,315,0.0,0.0,85,0.00,,,0.00,WUHU216HW,2013-06-05 10:53:00,
2013-06-05 06:58:00,61.5,57.1,0.00,NW,315,0.0,0.0,85,0.00,,,0.00,WUHU216HW,2013-06-05 10:58:00,
2013-06-05 07:03:00,61.8,57.3,0.00,NW,315,0.0,0.0,85,0.00,,,0.00,WUHU216HW,2013-06-05 11:03:00,
2013-06-05 07:08:00,61.8,57.3,0.00,NW,315,0.0,0.0,85,0.00,,,0.00,WUHU216HW,2013-06-05 11:08:00,
2013-06-05 07:13:00,62.0,57.4,0.00,NW,315,0.0,0.0,85,0.00,,,0.00,WUHU216HW,2013-06-05 11:13:00,
2013-06-05 07:18:00,62.2,57.6,0.00,NW,315,0.0,0.0,85,0.00,,,0.00,WUHU216HW,2013-06-05 11:18:00,
2013-06-05 07:23:00,62.2,57.6,0.00,NW,315,0.0,0.0,85,0.00,,,0.00,WUHU216HW,2013-06-05 11:23:00,
2013-06-05 07:28:00,62.4,58.1,0.00,NW,315,0.0,0.0,86,0.00,,,0.00,WUHU216HW,2013-06-05 11:28:00,
2013-06-05 07:33:00,62.4,58.1,0.00,NW,315,0.0,0.0,86,0.00,,,0.00,WUHU216HW,2013-06-05 11:33:00,
2013-06-05 07:38:00,62.7,58.5,0.00,NW,315,0.0,0.0,86,0.00,,,0.00,WUHU216HW,2013-06-05 11:38:00,
2013-06-05 07:43:00,62.9,58.7,0.00,NNW,338,0.0,0.0,86,0.00,,,0.00,WUHU216HW,2013-06-05 11:43:00,
2013-06-05 07:48:00,63.1,58.8,0.00,NNW,338,0.0,0.0,86,0.00,,,0.00,WUHU216HW,2013-06-05 11:48:00,
2013-06-05 07:53:00,63.3,59.0,0.00,NNW,338,0.0,0.0,86,0.00,,,0.00,WUHU216HW,2013-06-05 11:53:00,
2013-06-05 07:58:00,63.5,59.2,0.00,NNW,338,0.0,0.0,86,0.00,,,0.00,WUHU216HW,2013-06-05 11:58:00,
2013-06-05 08:03:00,63.6,59.4,0.00,NNW,338,0.0,0.0,86,0.00,,,0.00,WUHU216HW,2013-06-05 12:03:00,
2013-06-05 08:08:00,64.0,59.7,0.00,NNW,338,0.0,0.0,86,0.00,,,0.00,WUHU216HW,2013-06-05 12:08:00,
2013-06-05 08:13:00,64.0,59.7,0.00,NNW,338,0.0,0.0,86,0.00,,,0.00,WUHU216HW,2013-06-05 12:13:00,
2013-06-05 08:18:00,64.2,59.9,0.00,NNW,338,0.0,0.0,86,0.00,,,0.00,WUHU216HW,2013-06-05 12:18:00,
2013-06-05 08:23:00,64.4,60.1,0.00,NNW,338,0.0,0.0,86,0.00,,,0.00,WUHU216HW,2013-06-05 12:23:00,
2013-06-05 08:28:00,64.5,60.6,0.00,NNW,338,0.0,0.0,87,0.00,,,0.00,WUHU216HW,2013-06-05 12:28:00,
2013-06-05 08:33:00,64.9,60.9,0.00,NNW,338,0.0,0.0,87,0.00,,,0.00,WUHU216HW,2013-06-05 12:33:00,
2013-06-05 08:38:00,65.3,61.3,0.00,NNW,338,0.0,0.0,87,0.00,,,0.00,WUHU216HW,2013-06-05 12:38:00,
2013-06-05 08:43:00,65.3,60.9,0.00,NNW,338,0.0,0.0,86,0.00,,,0.00,WUHU216HW,2013-06-05 12:43:00,
2013-06-05 08:48:00,65.4,61.1,0.00,NNW,338,0.0,0.0,86,0.00,,,0.00,WUHU216HW,2013-06-05 12:48:00,
2013-06-05 08:53:00,65.8,61.5,0.00,NNW,338,0.0,0.0,86,0.00,,,0.00,WUHU216HW,2013-06-05 12:53:00,
2013-06-05 08:58:00,66.0,61.6,0.00,NNW,338,0.0,0.0,86,0.00,,,0.00,WUHU216HW,2013-06-05 12:58:00,
2013-06-05 09:03:00,66.0,61.6,0.00,NNW,338,0.0,0.0,86,0.00,,,0.00,WUHU216HW,2013-06-05 13:03:00,
2013-06-05 09:08:00,66.2,61.8,0.00,NNW,338,0.0,0.0,86,0.00,,,0.00,WUHU216HW,2013-06-05 13:08:00,
2013-06-05 09:13:00,66.3,62.0,0.00,NNW,338,0.0,0.0,86,0.00,,,0.00,WUHU216HW,2013-06-05 13:13:00,
2013-06-05 09:18:00,66.5,62.2,0.00,NNW,338,0.0,0.0,86,0.00,,,0.00,WUHU216HW,2013-06-05 13:18:00,
2013-06-05 09:23:00,66.7,62.3,0.00,NNW,338,0.0,0.0,86,0.00,,,0.00,WUHU216HW,2013-06-05 13:23:00,
2013-06-05 09:28:00,66.7,62.3,0.00,NNW,338,0.0,0.0,86,0.00,,,0.00,WUHU216HW,2013-06-05 13:28:00,
2013-06-05 09:33:00,67.1,62.7,0.00,NNW,338,0.0,0.0,86,0.00,,,0.00,WUHU216HW,2013-06-05 13:33:00,
2013-06-05 09:38:00,67.2,62.9,0.00,NNW,338,0.0,0.0,86,0.00,,,0.00,WUHU216HW,2013-06-05 13:38:00,
2013-06-05 09:43:00,67.6,63.2,0.00,NNW,338,0.0,0.0,86,0.00,,,0.00,WUHU216HW,2013-06-05 13:43:00,
2013-06-05 09:48:00,68.1,63.4,0.00,NNW,338,0.0,0.0,85,0.00,,,0.00,WUHU216HW,2013-06-05 13:48:00,
2013-06-05 09:53:00,68.7,64.3,0.00,NNW,338,0.0,0.0,86,0.00,,,0.00,WUHU216HW,2013-06-05 13:53:00,
2013-06-05 09:58:00,69.4,64.1,0.00,NNW,338,0.0,0.0,84,0.00,,,0.00,WUHU216HW,2013-06-05 13:58:00,
2013-06-05 10:03:00,69.6,64.5,0.00,NNW,338,0.0,0.0,84,0.00,,,0.00,WUHU216HW,2013-06-05 14:03:00,
2013-06-05 10:08:00,69.9,64.5,0.00,NNW,338,0.0,0.0,83,0.00,,,0.00,WUHU216HW,2013-06-05 14:08:00,
2013-06-05 10:13:00,70.3,64.5,0.00,NNW,338,0.0,0.0,82,0.00,,,0.00,WUHU216HW,2013-06-05 14:13:00,
2013-06-05 10:18:00,70.8,64.9,0.00,NNW,338,0.0,0.0,82,0.00,,,0.00,WUHU216HW,2013-06-05 14:18:00,
2013-06-05 10:23:00,71.2,65.4,0.00,NNW,338,0.0,0.0,82,0.00,,,0.00,WUHU216HW,2013-06-05 14:23:00,
2013-06-05 10:28:00,71.7,65.6,0.00,NNW,338,0.0,0.0,81,0.00,,,0.00,WUHU216HW,2013-06-05 14:28:00,
2013-06-05 10:33:00,71.7,65.6,0.00,NNW,338,0.0,0.0,81,0.00,,,0.00,WUHU216HW,2013-06-05 14:33:00,
2013-06-05 10:38:00,71.9,65.1,0.00,NNW,338,0.0,0.0,79,0.00,,,0.00,WUHU216HW,2013-06-05 14:38:00,
2013-06-05 10:43:00,72.3,65.4,0.00,NNW,338,0.0,0.0,79,0.00,,,0.00,WUHU216HW,2013-06-05 14:43:00,
2013-06-05 10:48:00,72.8,65.6,0.00,NW,315,0.0,0.0,78,0.00,,,0.00,WUHU216HW,2013-06-05 14:48:00,
2013-06-05 10:53:00,73.0,65.4,0.00,NW,315,0.0,0.0,77,0.00,,,0.00,WUHU216HW,2013-06-05 14:53:00,
2013-06-05 10:58:00,73.0,65.0,0.00,NW,315,0.0,0.0,76,0.00,,,0.00,WUHU216HW,2013-06-05 14:58:00,
2013-06-05 11:03:00,73.0,65.2,0.00,NW,315,0.0,0.0,76,0.00,,,0.00,WUHU216HW,2013-06-05 15:03:00,
2013-06-05 11:08:00,73.4,65.0,0.00,NW,315,0.0,0.0,75,0.00,,,0.00,WUHU216HW,2013-06-05 15:08:00,
2013-06-05 11:13:00,73.7,65.3,0.00,NW,315,0.0,0.0,75,0.00,,,0.00,WUHU216HW,2013-06-05 15:13:00,
2013-06-05 11:18:00,74.3,65.8,0.00,WNW,293,0.0,0.0,75,0.00,,,0.00,WUHU216HW,2013-06-05 15:18:00,
2013-06-05 11:23:00,74.6,66.2,0.00,NW,315,0.0,0.0,75,0.00,,,0.00,WUHU216HW,2013-06-05 15:23:00,
2013-06-05 11:28:00,74.8,65.6,0.00,NW,315,0.0,0.0,73,0.00,,,0.00,WUHU216HW,2013-06-05 15:28:00,
2013-06-05 11:33:00,75.0,65.7,0.00,NW,315,0.0,0.0,73,0.00,,,0.00,WUHU216HW,2013-06-05 15:33:00,
2013-06-05 11:38:00,75.3,66.1,0.00,NW,315,0.0,0.0,73,0.00,,,0.00,WUHU216HW,2013-06-05 15:38:00,
2013-06-05 11:43:00,75.5,65.8,0.00,NW,315,0.0,0.0,72,0.00,,,0.00,WUHU216HW,2013-06-05 15:43:00,
2013-06-05 11:48:00,75.7,65.8,0.00,NW,315,0.0,0.0,72,0.00,,,0.00,WUHU216HW,2013-06-05 15:48:00,
2013-06-05 11:53:00,75.5,65.8,0.00,NW,315,0.0,0.0,72,0.00,,,0.00,WUHU216HW,2013-06-05 15:53:00,
2013-06-05 11:58:00,75.9,66.2,0.00,NW,315,0.0,0.0,72,0.00,,,0.00,WUHU216HW,2013-06-05 15:58:00,
2013-06-05 12:03:00,75.9,65.8,0.00,NW,315,0.0,0.0,71,0.00,,,0.00,WUHU216HW,2013-06-05 16:03:00,
2013-06-05 12:08:00,76.2,66.2,0.00,NW,315,0.0,0.0,71,0.00,,,0.00,WUHU216HW,2013-06-05 16:08:00,
2013-06-05 12:13:00,76.8,66.3,0.00,NW,315,0.0,0.0,70,0.00,,,0.00,WUHU216HW,2013-06-05 16:13:00,
2013-06-05 12:18:00,77.0,66.1,0.00,WNW,293,0.0,0.0,69,0.00,,,0.00,WUHU216HW,2013-06-05 16:18:00,
2013-06-05 12:23:00,77.5,66.5,0.00,WNW,293,0.0,0.0,69,0.00,,,0.00,WUHU216HW,2013-06-05 16:23:00,
2013-06-05 12:28:00,77.5,66.5,0.00,NW,315,0.0,0.0,69,0.00,,,0.00,WUHU216HW,2013-06-05 16:28:00,
2013-06-05 12:33:00,77.3,65.9,0.00,NW,315,0.0,0.0,68,0.00,,,0.00,WUHU216HW,2013-06-05 16:33:00,
2013-06-05 12:38:00,77.5,66.5,0.00,NW,315,0.0,0.0,69,0.00,,,0.00,WUHU216HW,2013-06-05 16:38:00,
2013-06-05 12:43:00,77.7,67.2,0.00,NW,315,0.0,0.0,70,0.00,,,0.00,WUHU216HW,2013-06-05 16:43:00,
2013-06-05 12:48:00,77.9,66.4,0.00,NW,315,0.0,0.0,68,0.00,,,0.00,WUHU216HW,2013-06-05 16:48:00,
2013-06-05 12:53:00,78.0,66.6,0.00,NW,315,0.0,2.9,68,0.00,,,0.00,WUHU216HW,2013-06-05 16:53:00,
2013-06-05 12:58:00,78.0,66.6,0.00,SE,135,0.0,2.9,68,0.00,,,0.00,WUHU216HW,2013-06-05 16:58:00,
2013-06-05 13:03:00,78.2,66.3,0.00,NW,315,0.0,0.0,67,0.00,,,0.00,WUHU216HW,2013-06-05 17:03:00,
2013-06-05 13:08:00,78.4,66.5,0.00,NW,315,0.0,0.0,67,0.00,,,0.00,WUHU216HW,2013-06-05 17:08:00,
2013-06-05 13:13:00,78.0,66.2,0.00,NW,315,0.0,0.0,67,0.00,,,0.00,WUHU216HW,2013-06-05 17:13:00,
2013-06-05 13:18:00,78.4,66.5,0.00,NW,315,0.0,0.0,67,0.00,,,0.00,WUHU216HW,2013-06-05 17:18:00,
2013-06-05 13:23:00,78.4,66.5,0.00,NW,315,0.0,0.0,67,0.00,,,0.00,WUHU216HW,2013-06-05 17:23:00,
2013-06-05 13:28:00,78.6,67.1,0.00,NW,315,0.0,0.0,68,0.00,,,0.00,WUHU216HW,2013-06-05 17:28:00,
2013-06-05 13:33:00,78.9,66.6,0.00,NW,315,0.0,0.0,67,0.00,,,0.00,WUHU216HW,2013-06-05 17:33:00,
2013-06-05 13:38:00,78.9,66.1,0.00,NW,315,0.0,1.7,65,0.00,,,0.00,WUHU216HW,2013-06-05 17:38:00,
2013-06-05 13:43:00,79.3,66.9,0.00,NW,315,0.0,1.7,66,0.00,,,0.00,WUHU216HW,2013-06-05 17:43:00,
2013-06-05 13:48:00,79.3,66.9,0.00,NW,315,0.0,0.0,66,0.00,,,0.00,WUHU216HW,2013-06-05 17:48:00,
2013-06-05 13:53:00,79.3,66.5,0.00,WNW,293,0.0,3.8,65,0.00,,,0.00,WUHU216HW,2013-06-05 17:53:00,
2013-06-05 13:58:00,79.1,66.5,0.00,WNW,293,0.0,3.8,65,0.00,,,0.00,WUHU216HW,2013-06-05 17:58:00,
2013-06-05 14:03:00,79.3,66.5,0.00,NW,315,0.0,1.3,65,0.00,,,0.00,WUHU216HW,2013-06-05 18:03:00,
2013-06-05 14:08:00,78.9,65.7,0.00,NW,315,0.0,1.3,64,0.00,,,0.00,WUHU216HW,2013-06-05 18:08:00,
2013-06-05 14:13:00,78.6,65.4,0.00,WNW,293,0.0,3.1,64,0.00,,,0.00,WUHU216HW,2013-06-05 18:13:00,
2013-06-05 14:18:00,78.6,65.8,0.00,WNW,293,0.0,3.1,65,0.00,,,0.00,WUHU216HW,2013-06-05 18:18:00,
2013-06-05 14:23:00,78.9,66.1,0.00,NW,315,0.0,0.0,65,0.00,,,0.00,WUHU216HW,2013-06-05 18:23:00,
2013-06-05 14:28:00,79.1,65.9,0.00,NW,315,0.0,0.0,64,0.00,,,0.00,WUHU216HW,2013-06-05 18:28:00,
2013-06-05 14:33:00,79.1,65.9,0.00,NW,315,0.0,0.0,64,0.00,,,0.00,WUHU216HW,2013-06-05 18:33:00,
2013-06-05 14:38:00,78.9,65.3,0.00,NW,315,5.5,5.5,63,0.00,,,0.00,WUHU216HW,2013-06-05 18:38:00,
2013-06-05 14:43:00,78.9,65.7,0.00,WNW,293,0.0,5.5,63,0.00,,,0.00,WUHU216HW,2013-06-05 18:43:00,
2013-06-05 14:48:00,78.9,65.3,0.00,West,270,3.8,7.8,63,0.00,,,0.00,WUHU216HW,2013-06-05 18:48:00,
2013-06-05 14:53:00,78.8,64.7,0.00,NW,315,5.3,7.8,62,0.00,,,0.00,WUHU216HW,2013-06-05 18:53:00,
2013-06-05 14:58:00,78.8,65.3,0.00,NW,315,3.8,5.3,63,0.00,,,0.00,WUHU216HW,2013-06-05 18:58:00,
2013-06-05 15:03:00,78.9,65.4,0.00,NW,315,3.1,4.0,63,0.00,,,0.00,WUHU216HW,2013-06-05 19:03:00,
2013-06-05 15:08:00,79.3,66.0,0.00,WNW,293,2.4,4.0,64,0.00,,,0.00,WUHU216HW,2013-06-05 19:08:00,
2013-06-05 15:13:00,79.5,65.8,0.00,NW,315,2.2,4.0,63,0.00,,,0.00,WUHU216HW,2013-06-05 19:13:00,
2013-06-05 15:18:00,79.5,65.3,0.00,NW,315,0.0,5.3,62,0.00,,,0.00,WUHU216HW,2013-06-05 19:18:00,
2013-06-05 15:23:00,79.5,65.8,0.00,West,270,2.0,5.3,62,0.00,,,0.00,WUHU216HW,2013-06-05 19:23:00,
2013-06-05 15:28:00,79.3,65.2,0.00,NW,315,0.0,4.6,62,0.00,,,0.00,WUHU216HW,2013-06-05 19:28:00,
2013-06-05 15:33:00,79.3,65.2,0.00,NW,315,7.3,7.3,62,0.00,,,0.00,WUHU216HW,2013-06-05 19:33:00,
2013-06-05 15:38:00,79.5,65.8,0.00,NW,315,2.2,7.3,63,0.00,,,0.00,WUHU216HW,2013-06-05 19:38:00,
2013-06-05 15:43:00,79.3,65.2,0.00,NW,315,2.2,6.4,62,0.00,,,0.00,WUHU216HW,2013-06-05 19:43:00,
2013-06-05 15:48:00,79.5,64.7,0.00,NW,315,1.1,7.1,61,0.00,,,0.00,WUHU216HW,2013-06-05 19:48:00,
2013-06-05 15:53:00,79.1,64.6,0.00,WNW,293,2.9,7.1,61,0.00,,,0.00,WUHU216HW,2013-06-05 19:53:00,
2013-06-05 15:58:00,78.9,64.8,0.00,NW,315,0.0,4.0,62,0.00,,,0.00,WUHU216HW,2013-06-05 19:58:00,
2013-06-05 16:03:00,78.9,65.3,0.00,NW,315,0.0,0.0,63,0.00,,,0.00,WUHU216HW,2013-06-05 20:03:00,
2013-06-05 16:08:00,78.6,64.9,0.00,NW,315,0.0,0.0,63,0.00,,,0.00,WUHU216HW,2013-06-05 20:08:00,
2013-06-05 16:13:00,78.0,64.4,0.00,NW,315,0.0,3.1,63,0.00,,,0.00,WUHU216HW,2013-06-05 20:13:00,
2013-06-05 16:18:00,77.7,64.0,0.00,NW,315,1.7,3.1,63,0.00,,,0.00,WUHU216HW,2013-06-05 20:18:00,
2013-06-05 16:23:00,77.5,63.9,0.00,NW,315,2.0,7.1,63,0.00,,,0.00,WUHU216HW,2013-06-05 20:23:00,
2013-06-05 16:28:00,77.1,64.0,0.00,WNW,293,0.0,7.1,64,0.00,,,0.00,WUHU216HW,2013-06-05 20:28:00,
2013-06-05 16:33:00,77.1,64.4,0.00,NW,315,0.0,3.5,65,0.00,,,0.00,WUHU216HW,2013-06-05 20:33:00,
2013-06-05 16:38:00,77.1,64.9,0.00,West,270,0.0,3.5,66,0.00,,,0.00,WUHU216HW,2013-06-05 20:38:00,
2013-06-05 16:43:00,77.3,65.0,0.00,West,270,0.0,0.0,66,0.00,,,0.00,WUHU216HW,2013-06-05 20:43:00,
2013-06-05 16:48:00,77.7,64.9,0.00,NW,315,0.0,3.1,65,0.00,,,0.00,WUHU216HW,2013-06-05 20:48:00,
2013-06-05 16:53:00,77.9,65.1,0.00,NW,315,0.0,3.1,65,0.00,,,0.00,WUHU216HW,2013-06-05 20:53:00,
2013-06-05 16:58:00,78.0,65.7,0.00,WNW,293,0.0,0.0,66,0.00,,,0.00,WUHU216HW,2013-06-05 20:58:00,
2013-06-05 17:03:00,78.0,65.7,0.00,WNW,293,0.0,0.0,66,0.00,,,0.00,WUHU216HW,2013-06-05 21:03:00,
2013-06-05 17:08:00,78.4,66.1,0.00,NW,315,0.0,2.0,66,0.00,,,0.00,WUHU216HW,2013-06-05 21:08:00,
2013-06-05 17:13:00,78.2,65.9,0.00,NW,315,0.0,2.0,66,0.00,,,0.00,WUHU216HW,2013-06-05 21:13:00,
2013-06-05 17:18:00,77.9,65.6,0.00,WNW,293,0.0,0.0,66,0.00,,,0.00,WUHU216HW,2013-06-05 21:18:00,
2013-06-05 17:23:00,77.7,65.8,0.00,SSE,158,0.0,1.1,67,0.00,,,0.00,WUHU216HW,2013-06-05 21:23:00,
2013-06-05 17:28:00,77.1,65.3,0.00,WNW,293,0.0,1.1,67,0.00,,,0.00,WUHU216HW,2013-06-05 21:28:00,
2013-06-05 17:33:00,76.6,64.8,0.00,NW,315,0.0,0.0,67,0.00,,,0.00,WUHU216HW,2013-06-05 21:33:00,
2013-06-05 17:38:00,76.1,64.7,0.00,NW,315,0.0,0.0,68,0.00,,,0.00,WUHU216HW,2013-06-05 21:38:00,
2013-06-05 17:43:00,75.9,64.5,0.00,NW,315,1.1,3.5,68,0.00,,,0.00,WUHU216HW,2013-06-05 21:43:00,
2013-06-05 17:48:00,75.5,64.2,0.00,NW,315,1.3,3.5,68,0.00,,,0.00,WUHU216HW,2013-06-05 21:48:00,
2013-06-05 17:53:00,75.5,64.2,0.00,NW,315,0.0,1.3,68,0.00,,,0.00,WUHU216HW,2013-06-05 21:53:00,
2013-06-05 17:58:00,75.3,64.0,0.00,NW,315,0.0,0.0,68,0.00,,,0.00,WUHU216HW,2013-06-05 21:58:00,
2013-06-05 18:03:00,75.0,63.7,0.00,NW,315,0.0,1.1,68,0.00,,,0.00,WUHU216HW,2013-06-05 22:03:00,
2013-06-05 18:08:00,74.8,63.9,0.00,NW,315,0.0,1.1,69,0.00,,,0.00,WUHU216HW,2013-06-05 22:08:00,
2013-06-05 18:13:00,74.8,63.9,0.00,NW,315,0.0,0.0,69,0.00,,,0.00,WUHU216HW,2013-06-05 22:13:00,
2013-06-05 18:18:00,74.4,64.1,0.00,SW,225,0.0,0.0,70,0.00,,,0.00,WUHU216HW,2013-06-05 22:18:00,
2013-06-05 18:23:00,74.4,64.1,0.00,West,270,0.0,0.0,70,0.00,,,0.00,WUHU216HW,2013-06-05 22:23:00,
2013-06-05 18:28:00,74.3,64.3,0.00,WNW,293,0.0,0.0,71,0.00,,,0.00,WUHU216HW,2013-06-05 22:28:00,
2013-06-05 18:33:00,74.1,64.1,0.00,WNW,293,0.0,0.0,71,0.00,,,0.00,WUHU216HW,2013-06-05 22:33:00,
2013-06-05 18:38:00,74.1,64.1,0.00,ESE,113,0.0,0.0,71,0.00,,,0.00,WUHU216HW,2013-06-05 22:38:00,
2013-06-05 18:43:00,74.1,64.1,0.00,East,90,0.0,0.0,71,0.00,,,0.00,WUHU216HW,2013-06-05 22:43:00,
2013-06-05 18:48:00,73.9,64.0,0.00,East,90,0.0,0.0,71,0.00,,,0.00,WUHU216HW,2013-06-05 22:48:00,
2013-06-05 18:53:00,73.9,64.0,0.00,NNW,338,0.0,0.0,71,0.00,,,0.00,WUHU216HW,2013-06-05 22:53:00,
2013-06-05 18:58:00,73.5,63.6,0.00,NW,315,0.0,0.0,71,0.00,,,0.00,WUHU216HW,2013-06-05 22:58:00,
2013-06-05 19:03:00,73.5,64.0,0.00,NW,315,2.6,3.8,72,0.00,,,0.00,WUHU216HW,2013-06-05 23:03:00,
2013-06-05 19:08:00,73.2,63.7,0.00,NW,315,0.0,3.8,72,0.00,,,0.00,WUHU216HW,2013-06-05 23:08:00,
2013-06-05 19:13:00,73.2,63.7,0.00,WNW,293,0.0,0.0,72,0.00,,,0.00,WUHU216HW,2013-06-05 23:13:00,
2013-06-05 19:18:00,73.0,63.5,0.00,NW,315,0.0,0.0,72,0.00,,,0.00,WUHU216HW,2013-06-05 23:18:00,
2013-06-05 19:23:00,72.8,63.7,0.00,NW,315,0.0,0.0,73,0.00,,,0.00,WUHU216HW,2013-06-05 23:23:00,
2013-06-05 19:28:00,72.6,63.5,0.00,South,180,0.0,0.0,73,0.00,,,0.00,WUHU216HW,2013-06-05 23:28:00,
2013-06-05 19:33:00,72.6,63.5,0.00,South,180,0.0,0.0,73,0.00,,,0.00,WUHU216HW,2013-06-05 23:33:00,
2013-06-05 19:38:00,72.5,63.3,0.00,South,180,0.0,0.0,73,0.00,,,0.00,WUHU216HW,2013-06-05 23:38:00,
2013-06-05 19:43:00,72.3,63.3,0.00,West,270,0.0,0.0,73,0.00,,,0.00,WUHU216HW,2013-06-05 23:43:00,
2013-06-05 19:48:00,72.3,63.1,0.00,WNW,293,0.0,0.0,73,0.00,,,0.00,WUHU216HW,2013-06-05 23:48:00,
2013-06-05 19:53:00,72.1,63.0,0.00,WNW,293,0.0,0.0,73,0.00,,,0.00,WUHU216HW,2013-06-05 23:53:00,
2013-06-05 19:58:00,71.9,63.2,0.00,NW,315,0.0,0.0,74,0.00,,,0.00,WUHU216HW,2013-06-05 23:58:00,
2013-06-05 20:03:00,71.7,63.0,0.00,NW,315,0.0,0.0,74,0.00,,,0.00,WUHU216HW,2013-06-06 00:03:00,
2013-06-05 20:08:00,71.7,63.0,0.00,WSW,248,0.0,0.0,74,0.00,,,0.00,WUHU216HW,2013-06-06 00:08:00,
2013-06-05 20:13:00,71.4,62.6,0.00,WSW,248,0.0,0.0,74,0.00,,,0.00,WUHU216HW,2013-06-06 00:13:00,
2013-06-05 20:18:00,71.4,62.6,0.00,SE,135,0.0,0.0,74,0.00,,,0.00,WUHU216HW,2013-06-06 00:18:00,
2013-06-05 20:23:00,71.2,62.8,0.00,WNW,293,0.0,0.0,75,0.00,,,0.00,WUHU216HW,2013-06-06 00:23:00,
2013-06-05 20:28:00,71.2,62.8,0.00,WNW,293,0.0,0.0,75,0.00,,,0.00,WUHU216HW,2013-06-06 00:28:00,
2013-06-05 20:33:00,71.2,62.8,0.00,WNW,293,0.0,0.0,75,0.00,,,0.00,WUHU216HW,2013-06-06 00:33:00,
2013-06-05 20:38:00,71.0,62.6,0.00,WNW,293,0.0,0.0,75,0.00,,,0.00,WUHU216HW,2013-06-06 00:38:00,
2013-06-05 20:43:00,71.0,62.6,0.00,WNW,293,0.0,0.0,75,0.00,,,0.00,WUHU216HW,2013-06-06 00:43:00,
2013-06-05 20:48:00,70.8,62.5,0.00,North,0,0.0,0.0,75,0.00,,,0.00,WUHU216HW,2013-06-06 00:48:00,
2013-06-05 20:53:00,70.8,62.5,0.00,WSW,248,0.0,0.0,75,0.00,,,0.00,WUHU216HW,2013-06-06 00:53:00,
2013-06-05 20:58:00,70.5,62.5,0.00,West,270,0.0,0.0,76,0.00,,,0.00,WUHU216HW,2013-06-06 00:58:00,
2013-06-05 21:03:00,70.1,62.5,0.00,West,270,0.0,0.0,77,0.00,,,0.00,WUHU216HW,2013-06-06 01:03:00,
2013-06-05 21:08:00,69.6,62.4,0.00,NNE,23,0.0,0.0,78,0.02,,,0.03,WUHU216HW,2013-06-06 01:08:00,
2013-06-05 21:13:00,68.9,62.1,0.00,NW,315,0.0,1.1,79,0.08,,,0.07,WUHU216HW,2013-06-06 01:13:00,
2013-06-05 21:18:00,68.0,61.7,0.00,NW,315,0.0,1.1,80,0.12,,,0.11,WUHU216HW,2013-06-06 01:18:00,
2013-06-05 21:23:00,67.2,61.3,0.00,NW,315,0.0,0.0,81,0.14,,,0.13,WUHU216HW,2013-06-06 01:23:00,
2013-06-05 21:28:00,66.9,61.2,0.00,NW,315,0.0,0.0,82,0.16,,,0.15,WUHU216HW,2013-06-06 01:28:00,
2013-06-05 21:33:00,66.7,61.4,0.00,NW,315,0.0,0.0,83,0.16,,,0.17,WUHU216HW,2013-06-06 01:33:00,
2013-06-05 21:38:00,66.5,61.5,0.00,NW,315,0.0,0.0,84,0.16,,,0.17,WUHU216HW,2013-06-06 01:38:00,
2013-06-05 21:43:00,66.3,61.7,0.00,NW,315,0.0,0.0,85,0.16,,,0.17,WUHU216HW,2013-06-06 01:43:00,
2013-06-05 21:48:00,66.0,61.3,0.00,NW,315,0.0,0.0,85,0.16,,,0.17,WUHU216HW,2013-06-06 01:48:00,
2013-06-05 21:53:00,65.8,61.5,0.00,NW,315,0.0,0.0,86,0.16,,,0.17,WUHU216HW,2013-06-06 01:53:00,
2013-06-05 21:58:00,65.3,60.9,0.00,NW,315,0.0,0.0,86,0.16,,,0.17,WUHU216HW,2013-06-06 01:58:00,
2013-06-05 22:03:00,65.1,61.1,0.00,NW,315,0.0,0.0,87,0.14,,,0.17,WUHU216HW,2013-06-06 02:03:00,
2013-06-05 22:08:00,64.9,60.9,0.00,NW,315,0.0,0.0,87,0.10,,,0.17,WUHU216HW,2013-06-06 02:08:00,
2013-06-05 22:13:00,64.7,60.8,0.00,NW,315,0.0,0.0,87,0.06,,,0.17,WUHU216HW,2013-06-06 02:13:00,
2013-06-05 22:18:00,64.5,60.6,0.00,NW,315,0.0,0.0,87,0.04,,,0.17,WUHU216HW,2013-06-06 02:18:00,
2013-06-05 22:23:00,64.2,60.3,0.00,NW,315,0.0,0.0,87,0.02,,,0.17,WUHU216HW,2013-06-06 02:23:00,
2013-06-05 22:28:00,64.0,60.4,0.00,NW,315,0.0,0.0,88,0.00,,,0.17,WUHU216HW,2013-06-06 02:28:00,
2013-06-05 22:33:00,64.0,60.4,0.00,NW,315,0.0,0.0,88,0.00,,,0.17,WUHU216HW,2013-06-06 02:33:00,
2013-06-05 22:38:00,64.0,60.4,0.00,NW,315,0.0,0.0,88,0.00,,,0.17,WUHU216HW,2013-06-06 02:38:00,
2013-06-05 22:43:00,64.0,60.4,0.00,NW,315,0.0,0.0,88,0.00,,,0.17,WUHU216HW,2013-06-06 02:43:00,
2013-06-05 22:48:00,64.0,60.4,0.00,NW,315,0.0,0.0,88,0.00,,,0.17,WUHU216HW,2013-06-06 02:48:00,
2013-06-05 22:53:00,64.0,60.4,0.00,NW,315,0.0,0.0,88,0.00,,,0.17,WUHU216HW,2013-06-06 02:53:00,
2013-06-05 22:58:00,64.0,60.8,0.00,NW,315,0.0,0.0,89,0.00,,,0.17,WUHU216HW,2013-06-06 02:58:00,
2013-06-05 23:03:00,64.0,60.8,0.00,NW,315,0.0,0.0,89,0.00,,,0.17,WUHU216HW,2013-06-06 03:03:00,
2013-06-05 23:08:00,64.0,60.8,0.00,NW,315,0.0,0.0,89,0.00,,,0.17,WUHU216HW,2013-06-06 03:08:00,
2013-06-05 23:13:00,64.0,60.8,0.00,NW,315,0.0,0.0,89,0.00,,,0.17,WUHU216HW,2013-06-06 03:13:00,
2013-06-05 23:18:00,64.0,60.8,0.00,NW,315,0.0,0.0,89,0.00,,,0.17,WUHU216HW,2013-06-06 03:18:00,
2013-06-05 23:23:00,64.0,60.8,0.00,NW,315,0.0,0.0,89,0.00,,,0.17,WUHU216HW,2013-06-06 03:23:00,
2013-06-05 23:28:00,64.0,60.8,0.00,NW,315,0.0,0.0,89,0.00,,,0.17,WUHU216HW,2013-06-06 03:28:00,
2013-06-05 23:33:00,64.0,60.8,0.00,NW,315,0.0,0.0,89,0.00,,,0.17,WUHU216HW,2013-06-06 03:33:00,
2013-06-05 23:38:00,64.2,60.9,0.00,NW,315,0.0,0.0,89,0.00,,,0.17,WUHU216HW,2013-06-06 03:38:00,
2013-06-05 23:43:00,64.2,60.9,0.00,NW,315,0.0,0.0,89,0.00,,,0.17,WUHU216HW,2013-06-06 03:43:00,
2013-06-05 23:48:00,64.2,60.9,0.00,NW,315,0.0,0.0,89,0.00,,,0.17,WUHU216HW,2013-06-06 03:48:00,
2013-06-05 23:53:00,64.2,60.9,0.00,NW,315,0.0,0.0,89,0.00,,,0.17,WUHU216HW,2013-06-06 03:53:00,
2013-06-05 23:58:00,64.2,61.3,0.00,NW,315,0.0,0.0,90,0.00,,,0.17,WUHU216HW,2013-06-06 03:58:00,